Time,TemperatureF,DewpointF,PressureIn,WindDirection,WindDirectionDegrees,WindSpeedMPH,WindSpeedGustMPH,Humidity,HourlyPrecipIn,Conditions,Clouds,dailyrainin,SoftwareType,DateUTC
2013-01-22 07:40:00,16.9,2.7,30.45,SW,225,0.0,0.0,53,0.00,,---,0.00,VWS V14.01,2013-01-22 14:40:00,
2013-01-22 07:53:00,18.1,3.5,30.45,SW,219,0.0,0.0,52,0.00,,---,0.00,VWS V14.01,2013-01-22 14:53:00,
2013-01-22 07:58:00,17.5,2.9,30.45,SW,219,0.0,1.0,52,0.00,,---,0.00,VWS V14.01,2013-01-22 14:58:00,
2013-01-22 08:03:00,17.3,3.1,30.45,SW,219,0.0,0.0,53,0.00,,---,0.00,VWS V14.01,2013-01-22 15:03:00,
2013-01-22 08:08:00,17.5,3.7,30.47,SW,219,1.0,1.0,54,0.00,,---,0.00,VWS V14.01,2013-01-22 15:08:00,
2013-01-22 08:13:00,17.3,2.7,30.47,SW,219,0.0,0.0,52,0.00,,---,0.00,VWS V14.01,2013-01-22 15:13:00,
2013-01-22 08:18:00,17.5,2.9,30.47,SW,219,0.0,1.0,52,0.00,,---,0.00,VWS V14.01,2013-01-22 15:18:00,
2013-01-22 08:23:00,18.5,3.8,30.48,SW,219,0.0,0.0,52,0.00,,---,0.00,VWS V14.01,2013-01-22 15:23:00,
2013-01-22 08:28:00,19.7,4.5,30.45,SW,219,0.0,0.0,51,0.00,,---,0.00,VWS V14.01,2013-01-22 15:28:00,
2013-01-22 08:33:00,20.3,5.1,30.45,SW,219,0.0,0.0,51,0.00,,---,0.00,VWS V14.01,2013-01-22 15:33:00,
2013-01-22 08:38:00,20.7,5.0,30.44,SW,219,0.0,0.0,50,0.00,,---,0.00,VWS V14.01,2013-01-22 15:38:00,
2013-01-22 08:43:00,21.1,5.4,30.44,SW,219,0.0,0.0,50,0.00,,---,0.00,VWS V14.01,2013-01-22 15:43:00,
2013-01-22 08:48:00,21.1,5.4,30.44,SW,219,0.0,0.0,50,0.00,,---,0.00,VWS V14.01,2013-01-22 15:48:00,
2013-01-22 08:53:00,21.2,5.5,30.44,SW,219,0.0,0.0,50,0.00,,---,0.00,VWS V14.01,2013-01-22 15:53:00,
2013-01-22 08:58:00,21.9,6.6,30.44,SW,219,0.0,0.0,51,0.00,,---,0.00,VWS V14.01,2013-01-22 15:58:00,
2013-01-22 09:03:00,23.3,7.4,30.42,SW,219,0.0,0.0,50,0.00,,---,0.00,VWS V14.01,2013-01-22 16:03:00,
2013-01-22 09:08:00,24.5,7.2,30.46,SW,219,0.0,0.0,47,0.00,,---,0.00,VWS V14.01,2013-01-22 16:08:00,
2013-01-22 09:13:00,25.6,7.7,30.45,SW,219,0.0,0.0,46,0.00,,---,0.00,VWS V14.01,2013-01-22 16:13:00,
2013-01-22 09:18:00,26.0,9.0,30.45,SW,219,0.0,2.0,48,0.00,,---,0.00,VWS V14.01,2013-01-22 16:18:00,
2013-01-22 09:23:00,25.4,8.0,30.45,SW,219,1.0,2.0,47,0.00,,---,0.00,VWS V14.01,2013-01-22 16:23:00,
2013-01-22 09:28:00,24.0,7.2,30.47,SW,219,0.0,0.0,48,0.00,,---,0.00,VWS V14.01,2013-01-22 16:28:00,
2013-01-22 09:33:00,23.7,7.3,30.48,SW,219,0.0,0.0,49,0.00,,---,0.00,VWS V14.01,2013-01-22 16:33:00,
2013-01-22 09:38:00,23.9,8.4,30.48,SW,219,0.0,0.0,51,0.00,,---,0.00,VWS V14.01,2013-01-22 16:38:00,
2013-01-22 09:43:00,24.5,10.2,30.48,SW,219,1.0,3.0,54,0.00,,---,0.00,VWS V14.01,2013-01-22 16:43:00,
2013-01-22 09:48:00,26.0,11.2,30.47,SW,219,0.0,1.0,53,0.00,,---,0.00,VWS V14.01,2013-01-22 16:48:00,
2013-01-22 09:53:00,28.0,11.3,30.45,SW,219,0.0,0.0,49,0.00,,---,0.00,VWS V14.01,2013-01-22 16:53:00,
2013-01-22 09:58:00,30.0,12.2,30.43,SW,219,0.0,1.0,47,0.00,,---,0.00,VWS V14.01,2013-01-22 16:58:00,
2013-01-22 10:03:00,31.4,12.5,30.41,SW,219,0.0,0.0,45,0.00,,---,0.00,VWS V14.01,2013-01-22 17:03:00,
2013-01-22 10:08:00,32.8,12.8,30.38,SW,219,1.0,2.0,43,0.00,,---,0.00,VWS V14.01,2013-01-22 17:08:00,
2013-01-22 10:13:00,33.6,12.4,30.38,SW,219,1.0,2.0,41,0.00,,---,0.00,VWS V14.01,2013-01-22 17:13:00,
2013-01-22 10:18:00,34.5,11.5,30.38,SW,219,2.0,5.0,38,0.00,,---,0.00,VWS V14.01,2013-01-22 17:18:00,
2013-01-22 10:23:00,35.5,11.8,30.36,SW,219,0.0,5.0,37,0.00,,---,0.00,VWS V14.01,2013-01-22 17:23:00,
2013-01-22 10:28:00,36.1,13.0,30.36,SW,219,2.0,6.0,38,0.00,,---,0.00,VWS V14.01,2013-01-22 17:28:00,
2013-01-22 10:33:00,36.6,14.0,30.34,SW,219,4.0,4.0,39,0.00,,---,0.00,VWS V14.01,2013-01-22 17:33:00,
2013-01-22 10:38:00,37.0,15.5,30.34,SW,219,4.0,7.0,41,0.00,,---,0.00,VWS V14.01,2013-01-22 17:38:00,
2013-01-22 10:43:00,37.3,15.8,30.34,SW,219,2.0,6.0,41,0.00,,---,0.00,VWS V14.01,2013-01-22 17:43:00,
2013-01-22 10:48:00,37.7,13.2,30.34,SW,219,0.0,6.0,36,0.00,,---,0.00,VWS V14.01,2013-01-22 17:48:00,
2013-01-22 10:53:00,38.5,11.9,30.34,SW,219,4.0,5.0,33,0.00,,---,0.00,VWS V14.01,2013-01-22 17:53:00,
2013-01-22 10:58:00,39.1,11.8,30.32,SW,219,0.0,2.0,32,0.00,,---,0.00,VWS V14.01,2013-01-22 17:58:00,
2013-01-22 11:03:00,39.5,12.1,30.32,SW,219,0.0,0.0,32,0.00,,---,0.00,VWS V14.01,2013-01-22 18:03:00,
2013-01-22 11:08:00,40.4,14.3,30.35,SW,219,0.0,1.0,34,0.00,,---,0.00,VWS V14.01,2013-01-22 18:08:00,
2013-01-22 11:13:00,41.2,14.3,30.34,SW,219,0.0,1.0,33,0.00,,---,0.00,VWS V14.01,2013-01-22 18:13:00,
2013-01-22 11:18:00,41.6,11.7,30.34,SW,219,2.0,5.0,29,0.00,,---,0.00,VWS V14.01,2013-01-22 18:18:00,
2013-01-22 11:23:00,42.0,12.1,30.33,SW,219,0.0,1.0,29,0.00,,---,0.00,VWS V14.01,2013-01-22 18:23:00,
2013-01-22 11:28:00,43.0,11.3,30.32,SW,219,3.0,3.0,27,0.00,,---,0.00,VWS V14.01,2013-01-22 18:28:00,
2013-01-22 11:33:00,43.2,11.5,30.31,SW,219,3.0,5.0,27,0.00,,---,0.00,VWS V14.01,2013-01-22 18:33:00,
2013-01-22 11:38:00,43.6,11.0,30.31,SW,219,0.0,4.0,26,0.00,,---,0.00,VWS V14.01,2013-01-22 18:38:00,
2013-01-22 11:43:00,44.2,11.5,30.30,SW,219,0.0,2.0,26,0.00,,---,0.00,VWS V14.01,2013-01-22 18:43:00,
2013-01-22 11:48:00,45.0,13.1,30.28,SW,219,0.0,1.0,27,0.00,,---,0.00,VWS V14.01,2013-01-22 18:48:00,
2013-01-22 11:53:00,45.9,13.0,30.28,SW,219,0.0,4.0,26,0.00,,---,0.00,VWS V14.01,2013-01-22 18:53:00,
2013-01-22 11:58:00,46.4,14.2,30.27,SW,219,0.0,1.0,27,0.00,,---,0.00,VWS V14.01,2013-01-22 18:58:00,
2013-01-22 12:03:00,46.7,12.8,30.25,SW,219,0.0,5.0,25,0.00,,---,0.00,VWS V14.01,2013-01-22 19:03:00,
2013-01-22 12:08:00,46.7,12.8,30.28,SW,219,0.0,2.0,25,0.00,,---,0.00,VWS V14.01,2013-01-22 19:08:00,
2013-01-22 12:13:00,46.5,11.7,30.28,SW,219,0.0,2.0,24,0.00,,---,0.00,VWS V14.01,2013-01-22 19:13:00,
2013-01-22 12:18:00,45.8,12.9,30.27,SW,219,1.0,1.0,26,0.00,,---,0.00,VWS V14.01,2013-01-22 19:18:00,
2013-01-22 12:23:00,45.6,12.7,30.27,SW,219,0.0,1.0,26,0.00,,---,0.00,VWS V14.01,2013-01-22 19:23:00,
2013-01-22 12:28:00,45.3,11.6,30.29,SW,219,0.0,5.0,25,0.00,,---,0.00,VWS V14.01,2013-01-22 19:28:00,
2013-01-22 12:33:00,45.6,10.9,30.27,SW,219,1.0,1.0,24,0.00,,---,0.00,VWS V14.01,2013-01-22 19:33:00,
2013-01-22 12:38:00,46.8,10.0,30.26,SW,219,0.0,2.0,22,0.00,,---,0.00,VWS V14.01,2013-01-22 19:38:00,
2013-01-22 12:43:00,47.8,10.8,30.24,SW,219,7.0,8.0,22,0.00,,---,0.00,VWS V14.01,2013-01-22 19:43:00,
2013-01-22 12:48:00,47.4,12.4,30.25,SW,219,4.0,9.0,24,0.00,,---,0.00,VWS V14.01,2013-01-22 19:48:00,
2013-01-22 12:53:00,47.1,12.2,30.25,SW,220,4.0,9.0,24,0.00,,---,0.00,VWS V14.01,2013-01-22 19:53:00,
2013-01-22 12:58:00,47.3,13.3,30.25,SW,220,4.0,8.0,25,0.00,,---,0.00,VWS V14.01,2013-01-22 19:58:00,
2013-01-22 13:03:00,47.7,14.5,30.23,SW,219,2.0,5.0,26,0.00,,---,0.00,VWS V14.01,2013-01-22 20:03:00,
2013-01-22 13:08:00,48.1,15.7,30.23,SW,219,0.0,5.0,27,0.00,,---,0.00,VWS V14.01,2013-01-22 20:08:00,
2013-01-22 13:13:00,48.3,15.9,30.23,SW,219,0.0,6.0,27,0.00,,---,0.00,VWS V14.01,2013-01-22 20:13:00,
2013-01-22 13:18:00,47.8,16.3,30.23,SW,219,0.0,2.0,28,0.00,,---,0.00,VWS V14.01,2013-01-22 20:18:00,
2013-01-22 13:23:00,46.9,17.1,30.24,SW,219,0.0,4.0,30,0.00,,---,0.00,VWS V14.01,2013-01-22 20:23:00,
2013-01-22 13:29:00,46.5,17.5,30.24,SW,218,0.0,4.0,31,0.00,,---,0.00,VWS V14.01,2013-01-22 20:29:00,
2013-01-22 13:34:00,46.6,17.6,30.24,SW,218,1.0,4.0,31,0.00,,---,0.00,VWS V14.01,2013-01-22 20:34:00,
2013-01-22 13:39:00,47.2,18.1,30.24,SW,218,0.0,3.0,31,0.00,,---,0.00,VWS V14.01,2013-01-22 20:39:00,
2013-01-22 13:44:00,47.4,16.8,30.24,SW,218,0.0,1.0,29,0.00,,---,0.00,VWS V14.01,2013-01-22 20:44:00,
2013-01-22 13:49:00,48.3,15.9,30.23,SW,218,0.0,1.0,27,0.00,,---,0.00,VWS V14.01,2013-01-22 20:49:00,
2013-01-22 13:54:00,49.4,16.8,30.23,SW,218,1.0,2.0,27,0.00,,---,0.00,VWS V14.01,2013-01-22 20:54:00,
2013-01-22 13:59:00,50.6,17.0,30.21,SW,218,0.0,1.0,26,0.00,,---,0.00,VWS V14.01,2013-01-22 20:59:00,
2013-01-22 14:04:00,51.5,18.6,30.21,SW,218,0.0,5.0,27,0.00,,---,0.00,VWS V14.01,2013-01-22 21:04:00,
2013-01-22 14:09:00,51.3,18.5,30.23,SW,218,6.0,8.0,27,0.00,,---,0.00,VWS V14.01,2013-01-22 21:09:00,
2013-01-22 14:14:00,50.1,15.7,30.24,SW,218,0.0,5.0,25,0.00,,---,0.00,VWS V14.01,2013-01-22 21:14:00,
2013-01-22 14:19:00,49.9,16.4,30.23,SW,218,4.0,7.0,26,0.00,,---,0.00,VWS V14.01,2013-01-22 21:19:00,
2013-01-22 14:24:00,49.7,16.2,30.23,SW,218,4.0,6.0,26,0.00,,---,0.00,VWS V14.01,2013-01-22 21:24:00,
2013-01-22 14:29:00,50.1,17.4,30.23,SW,218,4.0,6.0,27,0.00,,---,0.00,VWS V14.01,2013-01-22 21:29:00,
2013-01-22 14:34:00,50.4,17.7,30.24,SW,218,0.0,7.0,27,0.00,,---,0.00,VWS V14.01,2013-01-22 21:34:00,
2013-01-22 14:39:00,51.2,16.6,30.24,SW,218,0.0,2.0,25,0.00,,---,0.00,VWS V14.01,2013-01-22 21:39:00,
2013-01-22 14:44:00,52.3,11.3,30.23,SW,221,0.0,8.0,19,0.00,,---,0.00,VWS V14.01,2013-01-22 21:44:00,
2013-01-22 14:49:00,52.9,12.9,30.22,SW,221,3.0,4.0,20,0.00,,---,0.00,VWS V14.01,2013-01-22 21:49:00,
2013-01-22 14:50:00,53.1,9.4,30.22,SW,221,1.0,6.0,17,0.00,,---,0.00,VWS V14.01,2013-01-22 21:50:00,
2013-01-22 14:55:00,53.3,13.3,30.22,SW,221,0.0,4.0,20,0.00,,---,0.00,VWS V14.01,2013-01-22 21:55:00,
2013-01-22 15:00:00,52.9,15.1,30.23,SW,221,1.0,6.0,22,0.00,,---,0.00,VWS V14.01,2013-01-22 22:00:00,
2013-01-22 15:05:00,52.0,12.2,30.22,ENE,59,6.0,12.0,20,0.00,,---,0.00,VWS V14.01,2013-01-22 22:05:00,
2013-01-22 15:10:00,51.2,12.6,30.24,NE,46,1.0,14.0,21,0.00,,---,0.00,VWS V14.01,2013-01-22 22:10:00,
2013-01-22 15:15:00,51.1,14.6,30.24,NE,44,4.0,6.0,23,0.00,,---,0.00,VWS V14.01,2013-01-22 22:15:00,
2013-01-22 15:20:00,50.5,15.1,30.24,NE,43,1.0,6.0,24,0.00,,---,0.00,VWS V14.01,2013-01-22 22:20:00,
2013-01-22 15:25:00,49.6,14.3,30.24,NE,51,4.0,12.0,24,0.00,,---,0.00,VWS V14.01,2013-01-22 22:25:00,
2013-01-22 15:30:00,49.5,14.2,30.25,NE,51,0.0,8.0,24,0.00,,---,0.00,VWS V14.01,2013-01-22 22:30:00,
2013-01-22 15:36:00,50.1,16.6,30.25,NE,51,1.0,1.0,26,0.00,,---,0.00,VWS V14.01,2013-01-22 22:36:00,
2013-01-22 15:41:00,50.4,15.9,30.25,NE,51,0.0,0.0,25,0.00,,---,0.00,VWS V14.01,2013-01-22 22:41:00,
2013-01-22 15:46:00,50.6,17.0,30.24,NE,51,0.0,0.0,26,0.00,,---,0.00,VWS V14.01,2013-01-22 22:46:00,
2013-01-22 15:51:00,51.0,14.5,30.25,SSW,195,7.0,8.0,23,0.00,,---,0.00,VWS V14.01,2013-01-22 22:51:00,
2013-01-22 15:56:00,50.2,15.8,30.25,SSW,205,2.0,4.0,25,0.00,,---,0.00,VWS V14.01,2013-01-22 22:56:00,
2013-01-22 16:01:00,50.5,14.1,30.25,SSW,205,0.0,1.0,23,0.00,,---,0.00,VWS V14.01,2013-01-22 23:01:00,
2013-01-22 16:06:00,51.0,11.4,30.25,SSW,205,0.0,0.0,20,0.00,,---,0.00,VWS V14.01,2013-01-22 23:06:00,
2013-01-22 16:11:00,51.4,10.5,30.22,SSW,205,0.0,0.0,19,0.00,,---,0.00,VWS V14.01,2013-01-22 23:11:00,
2013-01-22 16:16:00,51.2,12.6,30.22,SSW,205,2.0,2.0,21,0.00,,---,0.00,VWS V14.01,2013-01-22 23:16:00,
2013-01-22 16:21:00,50.1,12.8,30.24,ENE,59,0.0,0.0,22,0.00,,---,0.00,VWS V14.01,2013-01-22 23:21:00,
2013-01-22 16:26:00,49.7,12.4,30.24,NNW,342,1.0,1.0,22,0.00,,---,0.00,VWS V14.01,2013-01-22 23:26:00,
2013-01-22 16:31:00,49.4,12.2,30.24,NNW,342,0.0,0.0,22,0.00,,---,0.00,VWS V14.01,2013-01-22 23:31:00,
2013-01-22 16:36:00,49.2,12.0,30.24,NNW,342,5.0,5.0,22,0.00,,---,0.00,VWS V14.01,2013-01-22 23:36:00,
2013-01-22 16:41:00,49.2,13.0,30.24,NNW,342,0.0,0.0,23,0.00,,---,0.00,VWS V14.01,2013-01-22 23:41:00,
2013-01-22 16:46:00,48.6,14.4,30.24,NNW,342,0.0,0.0,25,0.00,,---,0.00,VWS V14.01,2013-01-22 23:46:00,
2013-01-22 16:51:00,47.2,15.8,30.25,NNW,342,0.0,1.0,28,0.00,,---,0.00,VWS V14.01,2013-01-22 23:51:00,
2013-01-22 16:56:00,45.6,16.0,30.28,NNW,342,0.0,0.0,30,0.00,,---,0.00,VWS V14.01,2013-01-22 23:56:00,
2013-01-22 17:01:00,44.3,12.4,30.29,NNW,342,0.0,0.0,27,0.00,,---,0.00,VWS V14.01,2013-01-23 00:01:00,
2013-01-22 17:06:00,43.6,11.8,30.30,NNW,342,0.0,0.0,27,0.00,,---,0.00,VWS V14.01,2013-01-23 00:06:00,
2013-01-22 17:11:00,43.2,15.4,30.30,NNW,342,0.0,0.0,32,0.00,,---,0.00,VWS V14.01,2013-01-23 00:11:00,
2013-01-22 17:16:00,41.7,14.7,30.31,NNW,342,0.0,0.0,33,0.00,,---,0.00,VWS V14.01,2013-01-23 00:16:00,
2013-01-22 17:21:00,40.0,13.2,30.33,NNW,342,0.0,0.0,33,0.00,,---,0.00,VWS V14.01,2013-01-23 00:21:00,
2013-01-22 17:26:00,38.5,13.2,30.33,NNW,342,0.0,1.0,35,0.00,,---,0.00,VWS V14.01,2013-01-23 00:26:00,
2013-01-22 17:31:00,37.4,12.9,30.35,NNW,342,5.0,5.0,36,0.00,,---,0.00,VWS V14.01,2013-01-23 00:31:00,
2013-01-22 17:36:00,36.0,14.6,30.37,NNW,341,0.0,0.0,41,0.00,,---,0.00,VWS V14.01,2013-01-23 00:36:00,
2013-01-22 17:41:00,35.0,14.2,30.38,NNW,342,0.0,0.0,42,0.00,,---,0.00,VWS V14.01,2013-01-23 00:41:00,
2013-01-22 17:46:00,34.2,14.1,30.39,NNW,342,2.0,2.0,43,0.00,,---,0.00,VWS V14.01,2013-01-23 00:46:00,
2013-01-22 17:51:00,33.1,14.1,30.40,NNW,331,0.0,0.0,45,0.00,,---,0.00,VWS V14.01,2013-01-23 00:51:00,
2013-01-22 17:56:00,32.3,14.3,30.42,NNW,331,0.0,0.0,47,0.00,,---,0.00,VWS V14.01,2013-01-23 00:56:00,
2013-01-22 18:01:00,31.6,14.2,30.42,NNW,330,0.0,0.0,48,0.00,,---,0.00,VWS V14.01,2013-01-23 01:01:00,
2013-01-22 18:06:00,31.4,14.5,30.42,NNW,330,0.0,1.0,49,0.00,,---,0.00,VWS V14.01,2013-01-23 01:06:00,
2013-01-22 18:11:00,30.4,14.4,30.48,NNW,331,2.0,2.0,51,0.00,,---,0.00,VWS V14.01,2013-01-23 01:11:00,
2013-01-22 18:16:00,29.6,13.7,30.50,NNW,331,2.0,4.0,51,0.00,,---,0.00,VWS V14.01,2013-01-23 01:16:00,
2013-01-22 18:21:00,30.1,11.8,30.50,NNW,330,4.0,4.0,46,0.00,,---,0.00,VWS V14.01,2013-01-23 01:21:00,
2013-01-22 18:26:00,30.5,13.6,30.48,NNW,331,0.0,0.0,49,0.00,,---,0.00,VWS V14.01,2013-01-23 01:26:00,
2013-01-22 18:31:00,29.7,12.4,30.50,NNW,331,3.0,3.0,48,0.00,,---,0.00,VWS V14.01,2013-01-23 01:31:00,
2013-01-22 18:36:00,30.0,11.7,30.51,NNW,327,0.0,0.0,46,0.00,,---,0.00,VWS V14.01,2013-01-23 01:36:00,
2013-01-22 18:41:00,30.6,11.3,30.49,NNW,327,0.0,0.0,44,0.00,,---,0.00,VWS V14.01,2013-01-23 01:41:00,
2013-01-22 18:46:00,30.8,12.0,30.49,NNW,327,0.0,0.0,45,0.00,,---,0.00,VWS V14.01,2013-01-23 01:46:00,
2013-01-22 18:51:00,30.1,11.8,30.51,NNW,327,0.0,0.0,46,0.00,,---,0.00,VWS V14.01,2013-01-23 01:51:00,
2013-01-22 18:56:00,29.6,11.4,30.51,NNW,327,4.0,4.0,46,0.00,,---,0.00,VWS V14.01,2013-01-23 01:56:00,
2013-01-22 19:01:00,28.9,11.2,30.52,NW,313,0.0,1.0,47,0.00,,---,0.00,VWS V14.01,2013-01-23 02:01:00,
2013-01-22 19:06:00,28.8,10.6,30.52,NW,312,1.0,2.0,46,0.00,,---,0.00,VWS V14.01,2013-01-23 02:06:00,
2013-01-22 19:11:00,28.9,9.7,30.44,WNW,302,0.0,0.0,44,0.00,,---,0.00,VWS V14.01,2013-01-23 02:11:00,
2013-01-22 19:16:00,28.8,9.6,30.44,WNW,302,0.0,0.0,44,0.00,,---,0.00,VWS V14.01,2013-01-23 02:16:00,
2013-01-22 19:22:00,28.7,9.1,30.44,WNW,303,0.0,0.0,43,0.00,,---,0.00,VWS V14.01,2013-01-23 02:22:00,
2013-01-22 19:27:00,28.8,9.1,30.45,WNW,302,0.0,0.0,43,0.00,,---,0.00,VWS V14.01,2013-01-23 02:27:00,
2013-01-22 19:32:00,28.7,8.5,30.45,WNW,303,0.0,1.0,42,0.00,,---,0.00,VWS V14.01,2013-01-23 02:32:00,
2013-01-22 19:37:00,28.3,9.7,30.47,WNW,302,2.0,3.0,45,0.00,,---,0.00,VWS V14.01,2013-01-23 02:37:00,
2013-01-22 19:42:00,27.2,10.6,30.46,WNW,302,0.0,2.0,49,0.00,,---,0.00,VWS V14.01,2013-01-23 02:42:00,
2013-01-22 19:47:00,26.4,9.8,30.48,WNW,302,0.0,0.0,49,0.00,,---,0.00,VWS V14.01,2013-01-23 02:47:00,
2013-01-22 19:52:00,26.5,9.0,30.46,WNW,302,0.0,1.0,47,0.00,,---,0.00,VWS V14.01,2013-01-23 02:52:00,
2013-01-22 19:57:00,26.3,10.2,30.48,WNW,302,0.0,0.0,50,0.00,,---,0.00,VWS V14.01,2013-01-23 02:57:00,
2013-01-22 20:02:00,25.9,9.8,30.49,WNW,302,0.0,0.0,50,0.00,,---,0.00,VWS V14.01,2013-01-23 03:02:00,
2013-01-22 20:07:00,25.6,9.1,30.41,WNW,302,0.0,0.0,49,0.00,,---,0.00,VWS V14.01,2013-01-23 03:07:00,
2013-01-22 20:12:00,25.4,8.9,30.43,WNW,302,0.0,0.0,49,0.00,,---,0.00,VWS V14.01,2013-01-23 03:12:00,
2013-01-22 20:17:00,25.1,9.1,30.43,WNW,303,0.0,0.0,50,0.00,,---,0.00,VWS V14.01,2013-01-23 03:17:00,
2013-01-22 20:22:00,23.8,9.6,30.44,WNW,302,1.0,2.0,54,0.00,,---,0.00,VWS V14.01,2013-01-23 03:22:00,
2013-01-22 20:27:00,22.6,8.5,30.46,WNW,302,0.0,0.0,54,0.00,,---,0.00,VWS V14.01,2013-01-23 03:27:00,
2013-01-22 20:32:00,22.1,8.8,30.47,WNW,302,0.0,2.0,56,0.00,,---,0.00,VWS V14.01,2013-01-23 03:32:00,
2013-01-22 20:37:00,21.2,8.7,30.49,WNW,302,0.0,2.0,58,0.00,,---,0.00,VWS V14.01,2013-01-23 03:37:00,
2013-01-22 20:42:00,20.3,7.9,30.49,WNW,302,0.0,4.0,58,0.00,,---,0.00,VWS V14.01,2013-01-23 03:42:00,
2013-01-22 20:47:00,19.6,8.0,30.50,WNW,302,0.0,0.0,60,0.00,,---,0.00,VWS V14.01,2013-01-23 03:47:00,
2013-01-22 20:52:00,18.8,7.6,30.51,WNW,303,0.0,0.0,61,0.00,,---,0.00,VWS V14.01,2013-01-23 03:52:00,
2013-01-22 20:57:00,18.3,7.5,30.52,WNW,302,0.0,0.0,62,0.00,,---,0.00,VWS V14.01,2013-01-23 03:57:00,
2013-01-22 21:02:00,18.0,7.9,30.52,WNW,302,0.0,1.0,64,0.00,,---,0.00,VWS V14.01,2013-01-23 04:02:00,
2013-01-22 21:07:00,18.0,8.2,30.45,WNW,302,0.0,0.0,65,0.00,,---,0.00,VWS V14.01,2013-01-23 04:07:00,
2013-01-22 21:12:00,18.2,8.8,30.45,WNW,302,0.0,0.0,66,0.00,,---,0.00,VWS V14.01,2013-01-23 04:12:00,
2013-01-22 21:17:00,18.6,8.8,30.45,WNW,302,0.0,0.0,65,0.00,,---,0.00,VWS V14.01,2013-01-23 04:17:00,
2013-01-22 21:22:00,19.4,9.2,30.45,WNW,302,0.0,0.0,64,0.00,,---,0.00,VWS V14.01,2013-01-23 04:22:00,
2013-01-22 21:27:00,19.7,9.5,30.44,WNW,302,0.0,0.0,64,0.00,,---,0.00,VWS V14.01,2013-01-23 04:27:00,
2013-01-22 21:32:00,19.9,9.0,30.44,WNW,302,0.0,0.0,62,0.00,,---,0.00,VWS V14.01,2013-01-23 04:32:00,
2013-01-22 21:37:00,20.9,8.8,30.44,WNW,302,0.0,0.0,59,0.00,,---,0.00,VWS V14.01,2013-01-23 04:37:00,
2013-01-22 21:42:00,21.1,8.3,30.44,WNW,302,0.0,0.0,57,0.00,,---,0.00,VWS V14.01,2013-01-23 04:42:00,
2013-01-22 21:47:00,21.4,8.1,30.44,WNW,302,0.0,1.0,56,0.00,,---,0.00,VWS V14.01,2013-01-23 04:47:00,
2013-01-22 21:52:00,21.8,8.1,30.42,WNW,302,0.0,0.0,55,0.00,,---,0.00,VWS V14.01,2013-01-23 04:52:00,